Flag for U.S.A. Weather past 2 weeks in Atlanta, Georgia, U.S.A.

Now
75 °F

Sunny.


Feels Like: 78 °F
Forecast: 53 / 72 °F
Wind: 12 mph from Northwest

Location: Fulton County Airport-Brown Field

Current Time: Apr 26, 2015 at 9:00:04 PM

Latest Report: Apr 26, 2015 at 7:53 PM


Visibility: 10 mi

Pressure: 29.67 "Hg

Humidity: 47%

Dew point: 53 °F

Location of AtlantaLocation

Historic Weather in Atlanta — Graph

°F

Atlanta temperature yesterday

Maximum temperature yesterday: 78 °F (at 5:53 PM)
Minimum temperature yesterday: 59 °F (at 6:53 AM)
Average temperature yesterday: 67 °F

Past Weeks' High & Low Weather Summary

 TemperatureHumidityPressure
High82 °F (Apr 14, 2:53 PM)97% (Apr 13, 9:53 PM)30.27 "Hg (Apr 13, 9:53 PM)
Low44 °F (Apr 22, 4:53 AM)19% (Apr 24, 3:53 PM)29.60 "Hg (Apr 26, 3:53 AM)
Average65 °F73%29.96 "Hg
* Reported Apr 11 7:53 PM — Apr 26 7:53 PM, Atlanta, Weather by CustomWeather, © 2015

Note: Actual official high and low records may vary slightly from our data, if they occured in-between our weather recording intervals... More about our weather records

Advertising

Atlanta weather history for previous 24 hours

 ConditionsComfort  
Time TempWeatherWind HumidityBarometerVisibility
7:53 PM
Sun, Apr 26
75 °FSunny.12 mph47%29.67 "Hg10 mi
6:53 PM77 °FSunny.12 mph45%29.65 "Hg10 mi
5:53 PM80 °FPassing clouds.14 mph42%29.64 "Hg10 mi
4:53 PM82 °FPassing clouds.16 mph40%29.63 "Hg10 mi
3:53 PM82 °FSunny.14 mph41%29.63 "Hg10 mi
2:53 PM81 °FPassing clouds.16 mph44%29.64 "Hg10 mi
1:53 PM81 °FScattered clouds.17 mph44%29.65 "Hg10 mi
12:53 PM80 °FSunny.10 mph49%29.66 "Hg10 mi
11:53 AM77 °FPassing clouds.14 mph60%29.68 "Hg10 mi
10:53 AM73 °FPassing clouds.13 mph69%29.68 "Hg10 mi
9:53 AM70 °FScattered clouds.10 mph79%29.68 "Hg10 mi
8:53 AM67 °FScattered clouds.7 mph87%29.67 "Hg10 mi
7:53 AM63 °FPassing clouds.6 mph93%29.67 "Hg10 mi
6:53 AM64 °FOvercast.7 mph90%29.65 "Hg10 mi
5:53 AM63 °FPassing clouds.7 mph97%29.62 "Hg9 mi
4:53 AM64 °FPassing clouds.8 mph94%29.61 "Hg10 mi
3:53 AM64 °FClear.7 mph94%29.60 "Hg10 mi
2:53 AM64 °FPassing clouds.8 mph94%29.61 "Hg10 mi
1:53 AM65 °FClear.7 mph91%29.62 "Hg10 mi
12:53 AM65 °FClear.6 mph91%29.63 "Hg10 mi
11:53 PM
Sat, Apr 25
66 °FClear.8 mph87%29.63 "Hg10 mi
10:53 PM68 °FClear.6 mph82%29.63 "Hg10 mi
9:53 PM70 °FClear.9 mph79%29.62 "Hg10 mi
Weather by CustomWeather, © 2015

See weather overviewHow to use our weather pages